| time (UTC) | temp F | wind direction | speed knots | gust knots | rain 1hr in | rain 24hr in | rain mn in | humidity % | barometer mb |
| 20260902024517 | 61 | 0.0 | 0.0 | 0.00 | 0.18 | 0.18 | 96 | 1018.6 | |
| 20260902023518 | 61 | 0.0 | 0.0 | 0.00 | 0.18 | 0.18 | 96 | 1018.8 | |
| 20260902022519 | 61 | 0.0 | 0.0 | 0.00 | 0.18 | 0.18 | 95 | 1018.8 | |
| 20260902021519 | 61 | 0.0 | 0.0 | 0.00 | 0.18 | 0.18 | 95 | 1018.8 | |
| 20260902020518 | 61 | 0.0 | 0.0 | 0.00 | 0.18 | 0.18 | 95 | 1018.7 | |
| 20260902015519 | 61 | 0.0 | 0.0 | 0.00 | 0.18 | 0.18 | 95 | 1018.8 | |
| 20260902014518 | 61 | 0.0 | 0.0 | 0.00 | 0.18 | 0.18 | 95 | 1018.6 | |
| 20260902013517 | 61 | 0.0 | 0.0 | 0.00 | 0.18 | 0.18 | 95 | 1018.6 | |
| 20260902012517 | 61 | 0.0 | 0.0 | 0.00 | 0.18 | 0.18 | 95 | 1018.7 | |
| 20260902011517 | 62 | 0.0 | 0.0 | 0.00 | 0.18 | 0.18 | 95 | 1018.6 | |
| 20260902010517 | 62 | 0.0 | 0.0 | 0.00 | 0.18 | 0.18 | 95 | 1018.5 | |
| 20260902005516 | 62 | 0.0 | 0.0 | 0.00 | 0.18 | 0.18 | 94 | 1018.5 | |
| 20260902004517 | 62 | 0.0 | 0.0 | 0.00 | 0.18 | 0.18 | 94 | 1018.4 | |
| 20260902003516 | 62 | 0.0 | 0.0 | 0.00 | 0.18 | 0.18 | 94 | 1018.2 | |
| 20260902002515 | 63 | 0.0 | 0.0 | 0.00 | 0.18 | 0.18 | 94 | 1018.0 | |
| 20260902001519 | 63 | 0.0 | 0.0 | 0.00 | 0.18 | 0.18 | 94 | 1018.1 | |
| 20260902000516 | 63 | 0.0 | 0.0 | 0.00 | 0.18 | 0.18 | 94 | 1018.1 | |
| 20260901235537 | 63 | 0.0 | 0.0 | 0.00 | 0.18 | 0.18 | 94 | 1018.1 | |
| 20260901234517 | 63 | 0.0 | 0.0 | 0.00 | 0.18 | 0.18 | 93 | 1018.1 | |
| 20260901233516 | 63 | 0.0 | 0.0 | 0.00 | 0.18 | 0.18 | 93 | 1017.9 | |
| 20260901232517 | 64 | 0.0 | 0.0 | 0.00 | 0.18 | 0.18 | 93 | 1018.0 | |
| 20260901231516 | 64 | 0.0 | 0.0 | 0.00 | 0.18 | 0.18 | 93 | 1018.0 | |
| 20260901230517 | 64 | 0.0 | 0.0 | 0.00 | 0.18 | 0.18 | 93 | 1017.9 | |
| 20260901225516 | 65 | 0.0 | 0.0 | 0.00 | 0.18 | 0.18 | 93 | 1017.9 | |
| 20260901224516 | 65 | 0.0 | 0.0 | 0.00 | 0.18 | 0.18 | 92 | 1017.9 | |
| 20260901223537 | 65 | 0.0 | 0.9 | 0.00 | 0.18 | 0.18 | 92 | 1018.0 | |
| 20260901222516 | 65 | 0.0 | 0.9 | 0.00 | 0.18 | 0.18 | 92 | 1018.1 | |
| 20260901221515 | 65 | 190 | 0.0 | 2.6 | 0.00 | 0.18 | 0.18 | 92 | 1017.8 |
| 20260901220517 | 65 | 190 | 0.0 | 2.6 | 0.00 | 0.18 | 0.18 | 92 | 1017.7 |
| 20260901215535 | 66 | 190 | 0.0 | 1.7 | 0.00 | 0.18 | 0.18 | 93 | 1017.8 |
| 20260901214539 | 65 | 0.0 | 0.0 | 0.00 | 0.18 | 0.18 | 92 | 1017.8 | |
| 20260901213516 | 66 | 0.0 | 0.0 | 0.00 | 0.18 | 0.18 | 93 | 1017.7 | |
| 20260901212515 | 65 | 0.0 | 0.9 | 0.00 | 0.18 | 0.18 | 93 | 1017.6 | |
| 20260901211536 | 65 | 190 | 0.0 | 1.7 | 0.00 | 0.18 | 0.18 | 93 | 1017.7 |
| 20260901210517 | 65 | 190 | 0.0 | 0.9 | 0.00 | 0.18 | 0.18 | 93 | 1017.6 |
| 20260901205516 | 65 | 0.0 | 0.9 | 0.00 | 0.18 | 0.18 | 93 | 1017.5 | |
| 20260901204517 | 65 | 0.0 | 0.9 | 0.00 | 0.18 | 0.18 | 93 | 1017.4 | |
| 20260901203517 | 66 | 0.0 | 0.0 | 0.01 | 0.18 | 0.18 | 94 | 1017.3 | |
| 20260901202516 | 66 | 0.0 | 0.9 | 0.01 | 0.18 | 0.18 | 94 | 1017.4 | |
| 20260901201517 | 66 | 190 | 0.0 | 1.7 | 0.01 | 0.18 | 0.18 | 94 | 1017.5 |
| 20260901200518 | 66 | 190 | 0.0 | 1.7 | 0.01 | 0.18 | 0.18 | 94 | 1017.4 |
| 20260901195517 | 66 | 190 | 0.0 | 1.7 | 0.01 | 0.18 | 0.18 | 95 | 1017.4 |
| 20260901194536 | 66 | 190 | 0.0 | 1.7 | 0.01 | 0.18 | 0.18 | 95 | 1017.4 |
| 20260901193515 | 66 | 190 | 0.0 | 1.7 | 0.00 | 0.17 | 0.17 | 95 | 1017.4 |
| 20260901192517 | 66 | 190 | 0.0 | 1.7 | 0.00 | 0.17 | 0.17 | 95 | 1017.3 |
| 20260901191516 | 66 | 190 | 0.0 | 2.6 | 0.00 | 0.17 | 0.17 | 95 | 1017.4 |
| 20260901190517 | 67 | 190 | 0.0 | 2.6 | 0.00 | 0.17 | 0.17 | 95 | 1017.4 |
| 20260901185536 | 67 | 190 | 0.9 | 2.6 | 0.01 | 0.17 | 0.17 | 96 | 1017.3 |
| 20260901184537 | 67 | 190 | 0.0 | 1.7 | 0.01 | 0.17 | 0.17 | 96 | 1017.2 |
| 20260901183516 | 67 | 190 | 0.0 | 2.6 | 0.01 | 0.17 | 0.17 | 96 | 1017.2 |
| 20260901182517 | 67 | 190 | 0.0 | 1.7 | 0.01 | 0.17 | 0.17 | 96 | 1017.0 |
| 20260901181516 | 66 | 0.0 | 0.0 | 0.01 | 0.17 | 0.17 | 96 | 1017.0 | |
| 20260901180517 | 66 | 0.0 | 0.9 | 0.01 | 0.17 | 0.17 | 96 | 1017.0 | |
| 20260901175536 | 66 | 0.0 | 0.9 | 0.00 | 0.16 | 0.16 | 96 | 1017.0 | |
| 20260901174515 | 65 | 0.0 | 0.9 | 0.00 | 0.16 | 0.16 | 95 | 1017.0 | |
| 20260901173517 | 66 | 0.0 | 0.0 | 0.00 | 0.16 | 0.16 | 96 | 1017.1 | |
| 20260901172556 | 66 | 0.0 | 0.0 | 0.00 | 0.16 | 0.16 | 95 | 1017.1 | |
| 20260901171557 | 66 | 0.0 | 0.0 | 0.00 | 0.16 | 0.16 | 96 | 1017.2 | |
| 20260901170516 | 66 | 0.0 | 0.0 | 0.00 | 0.16 | 0.16 | 96 | 1017.3 | |
| 20260901165537 | 66 | 0.0 | 0.9 | 0.00 | 0.16 | 0.16 | 96 | 1017.2 | |
| 20260901164538 | 65 | 190 | 0.0 | 0.9 | 0.00 | 0.16 | 0.16 | 95 | 1017.3 |
| 20260901163515 | 65 | 0.0 | 0.9 | 0.00 | 0.16 | 0.16 | 96 | 1017.2 | |
| 20260901162516 | 65 | 190 | 0.0 | 1.7 | 0.00 | 0.16 | 0.16 | 96 | 1017.2 |
| 20260901161536 | 65 | 0.0 | 1.7 | 0.00 | 0.16 | 0.16 | 96 | 1017.1 | |
| 20260901160517 | 65 | 190 | 0.0 | 1.7 | 0.00 | 0.16 | 0.16 | 96 | 1017.2 |
| 20260901155518 | 65 | 190 | 0.0 | 2.6 | 0.00 | 0.16 | 0.16 | 95 | 1017.3 |
| 20260901154519 | 65 | 190 | 0.0 | 2.6 | 0.00 | 0.16 | 0.16 | 96 | 1017.2 |
| 20260901153516 | 65 | 0.0 | 0.9 | 0.00 | 0.16 | 0.16 | 96 | 1017.2 | |
| 20260901152538 | 65 | 0.0 | 0.0 | 0.00 | 0.16 | 0.16 | 96 | 1017.1 | |
| 20260901151518 | 65 | 0.0 | 0.9 | 0.01 | 0.16 | 0.16 | 96 | 1017.0 | |
| 20260901150516 | 64 | 0.0 | 0.0 | 0.01 | 0.16 | 0.16 | 96 | 1016.9 | |
| 20260901145521 | 64 | 0.0 | 0.0 | 0.01 | 0.16 | 0.16 | 96 | 1016.8 | |
| 20260901144518 | 63 | 0.0 | 0.0 | 0.02 | 0.16 | 0.16 | 95 | 1016.8 | |
| 20260901143540 | 63 | 0.0 | 0.0 | 0.04 | 0.16 | 0.16 | 95 | 1016.9 | |
| 20260901142539 | 63 | 0.0 | 0.9 | 0.06 | 0.16 | 0.16 | 95 | 1016.9 | |
| 20260901141540 | 63 | 0.0 | 0.9 | 0.07 | 0.15 | 0.15 | 95 | 1017.0 | |
| 20260901140537 | 63 | 0.0 | 0.9 | 0.11 | 0.15 | 0.15 | 95 | 1017.2 | |
| 20260901135538 | 63 | 190 | 0.0 | 1.7 | 0.14 | 0.15 | 0.15 | 94 | 1017.2 |
| 20260901134539 | 63 | 190 | 0.9 | 1.7 | 0.14 | 0.14 | 0.14 | 94 | 1017.3 |
| 20260901133518 | 63 | 190 | 0.0 | 1.7 | 0.12 | 0.12 | 0.12 | 94 | 1017.4 |
| 20260901132519 | 64 | 190 | 0.0 | 1.7 | 0.10 | 0.10 | 0.10 | 93 | 1017.4 |
| 20260901131518 | 64 | 0.0 | 1.7 | 0.08 | 0.08 | 0.08 | 93 | 1017.4 | |
| 20260901130519 | 64 | 190 | 0.0 | 1.7 | 0.04 | 0.04 | 0.04 | 92 | 1017.6 |
| 20260901125517 | 65 | 190 | 0.9 | 2.6 | 0.01 | 0.01 | 0.01 | 92 | 1017.5 |
| 20260901124539 | 66 | 190 | 1.7 | 2.6 | 0.00 | 0.00 | 0.00 | 92 | 1017.3 |
| 20260901123518 | 66 | 190 | 0.9 | 2.6 | 0.00 | 0.00 | 0.00 | 92 | 1017.3 |
| 20260901122519 | 66 | 0.0 | 0.9 | 0.00 | 0.00 | 0.00 | 92 | 1017.4 | |
| 20260901121517 | 66 | 190 | 0.0 | 1.7 | 0.00 | 0.00 | 0.00 | 92 | 1017.3 |
| 20260901120539 | 66 | 190 | 0.0 | 1.7 | 0.00 | 0.00 | 0.00 | 91 | 1017.4 |
| 20260901115519 | 66 | 190 | 0.9 | 1.7 | 0.00 | 0.00 | 0.00 | 91 | 1017.3 |
| 20260901114518 | 67 | 190 | 0.9 | 1.7 | 0.00 | 0.00 | 0.00 | 91 | 1017.3 |
| 20260901113520 | 67 | 190 | 0.0 | 1.7 | 0.00 | 0.00 | 0.00 | 91 | 1017.2 |
| 20260901112518 | 67 | 0.0 | 1.7 | 0.00 | 0.00 | 0.00 | 91 | 1017.2 | |
| 20260901111518 | 67 | 0.0 | 1.7 | 0.00 | 0.00 | 0.00 | 91 | 1017.1 | |
| 20260901110519 | 67 | 0.0 | 0.0 | 0.00 | 0.00 | 0.00 | 91 | 1017.1 | |
| 20260901105538 | 67 | 0.0 | 1.7 | 0.00 | 0.00 | 0.00 | 91 | 1016.8 | |
| 20260901104519 | 66 | 190 | 0.0 | 1.7 | 0.00 | 0.00 | 0.00 | 91 | 1016.7 |
| 20260901103518 | 66 | 190 | 0.0 | 1.7 | 0.00 | 0.00 | 0.00 | 91 | 1016.4 |
| 20260901102519 | 66 | 190 | 0.0 | 0.9 | 0.00 | 0.00 | 0.00 | 91 | 1016.4 |
| 20260901101518 | 66 | 0.0 | 0.0 | 0.00 | 0.00 | 0.00 | 91 | 1016.4 | |
| 20260901100521 | 66 | 0.0 | 0.0 | 0.00 | 0.00 | 0.00 | 91 | 1016.3 | |
| 20260901095518 | 66 | 0.0 | 0.0 | 0.00 | 0.00 | 0.00 | 91 | 1016.3 | |
| 20260901094517 | 66 | 0.0 | 0.0 | 0.00 | 0.00 | 0.00 | 91 | 1016.3 | |
| 20260901093518 | 66 | 0.0 | 0.0 | 0.00 | 0.00 | 0.00 | 90 | 1016.3 | |
| 20260901092519 | 66 | 0.0 | 0.0 | 0.00 | 0.00 | 0.00 | 90 | 1016.3 | |
| 20260901091518 | 66 | 0.0 | 0.0 | 0.00 | 0.00 | 0.00 | 90 | 1016.3 | |
| 20260901090517 | 66 | 0.0 | 0.0 | 0.00 | 0.00 | 0.00 | 90 | 1016.3 | |
| 20260901085519 | 66 | 0.0 | 0.0 | 0.00 | 0.00 | 0.00 | 89 | 1016.3 | |
| 20260901084520 | 67 | 0.0 | 1.7 | 0.00 | 0.00 | 0.00 | 89 | 1016.4 | |
| 20260901083519 | 67 | 190 | 0.0 | 4.3 | 0.00 | 0.00 | 0.00 | 88 | 1016.5 |
| 20260901082520 | 67 | 190 | 0.9 | 4.3 | 0.00 | 0.00 | 0.00 | 87 | 1016.5 |
| 20260901081519 | 68 | 190 | 0.9 | 3.5 | 0.00 | 0.00 | 0.00 | 86 | 1016.5 |
| 20260901080538 | 68 | 190 | 0.9 | 6.1 | 0.00 | 0.00 | 0.00 | 86 | 1016.6 |
| 20260901075519 | 68 | 184 | 0.9 | 4.3 | 0.00 | 0.00 | 0.00 | 85 | 1016.7 |
| 20260901074518 | 68 | 184 | 1.7 | 4.3 | 0.00 | 0.00 | 0.00 | 85 | 1016.8 |
| 20260901073540 | 68 | 183 | 0.9 | 5.2 | 0.00 | 0.00 | 0.00 | 84 | 1016.9 |
| 20260901072539 | 68 | 184 | 0.9 | 2.6 | 0.00 | 0.00 | 0.00 | 83 | 1016.9 |
| 20260901071538 | 68 | 184 | 0.0 | 6.1 | 0.00 | 0.00 | 0.00 | 83 | 1017.0 |
| 20260901070519 | 68 | 184 | 0.9 | 2.6 | 0.00 | 0.00 | 0.00 | 82 | 1017.0 |
| 20260901065540 | 68 | 184 | 0.0 | 3.5 | 0.00 | 0.00 | 0.00 | 81 | 1017.0 |
| 20260901064519 | 68 | 184 | 0.9 | 3.5 | 0.00 | 0.00 | 0.00 | 81 | 1017.0 |
| 20260901063518 | 68 | 184 | 0.9 | 3.5 | 0.00 | 0.00 | 0.00 | 80 | 1017.1 |
| 20260901062539 | 68 | 184 | 0.0 | 2.6 | 0.00 | 0.00 | 0.00 | 80 | 1017.1 |
| 20260901061518 | 68 | 184 | 0.0 | 4.3 | 0.00 | 0.00 | 0.00 | 80 | 1017.1 |
| 20260901060517 | 68 | 183 | 0.9 | 5.2 | 0.00 | 0.00 | 0.00 | 80 | 1017.2 |
| 20260901055518 | 67 | 180 | 0.0 | 6.1 | 0.00 | 0.00 | 0.00 | 81 | 1017.3 |
| 20260901054518 | 67 | 180 | 0.9 | 6.1 | 0.00 | 0.00 | 0.00 | 82 | 1017.2 |
| 20260901053519 | 66 | 190 | 0.0 | 4.3 | 0.00 | 0.00 | 0.00 | 85 | 1017.2 |
| 20260901052538 | 66 | 0.0 | 0.9 | 0.00 | 0.00 | 0.00 | 87 | 1017.2 | |
| 20260901051517 | 67 | 0.0 | 0.0 | 0.00 | 0.00 | 0.00 | 87 | 1017.2 | |
| 20260901050518 | 67 | 0.0 | 0.0 | 0.00 | 0.00 | 0.00 | 88 | 1017.3 | |
| 20260901045517 | 67 | 190 | 0.0 | 0.9 | 0.00 | 0.00 | 0.00 | 88 | 1017.2 |
| 20260901044516 | 67 | 190 | 0.0 | 0.9 | 0.00 | 0.00 | 0.00 | 88 | 1017.2 |
| 20260901043538 | 67 | 190 | 0.0 | 1.7 | 0.00 | 0.00 | 0.00 | 88 | 1017.4 |
| 20260901042517 | 67 | 190 | 0.0 | 2.6 | 0.00 | 0.00 | 0.00 | 88 | 1017.3 |
| 20260901041516 | 67 | 190 | 0.9 | 3.5 | 0.00 | 0.00 | 0.00 | 88 | 1017.4 |
| 20260901040517 | 67 | 190 | 0.9 | 3.5 | 0.00 | 0.00 | 0.00 | 89 | 1017.4 |
| 20260901035516 | 67 | 191 | 0.0 | 2.6 | 0.00 | 0.00 | 0.00 | 88 | 1017.4 |
| 20260901034518 | 68 | 191 | 0.0 | 3.5 | 0.00 | 0.00 | 0.00 | 88 | 1017.3 |
| 20260901033518 | 68 | 194 | 0.9 | 4.3 | 0.00 | 0.00 | 0.00 | 88 | 1017.4 |
| 20260901032516 | 68 | 176 | 0.9 | 7.0 | 0.00 | 0.00 | 0.00 | 88 | 1017.4 |
| 20260901031519 | 68 | 199 | 0.9 | 3.5 | 0.00 | 0.00 | 0.00 | 88 | 1017.4 |
| 20260901030518 | 68 | 200 | 0.9 | 4.3 | 0.00 | 0.00 | 0.00 | 88 | 1017.4 |
| 20260901025517 | 67 | 201 | 0.9 | 5.2 | 0.00 | 0.00 | 0.00 | 88 | 1017.3 |